Home   Weather   Cardiff   Past weeks

Flag for United Kingdom Past Weather in Cardiff, Wales, United Kingdom — Yesterday and Last 2 Weeks

48 °F

Light rain. Partly sunny.

Feels Like: 42 °F
Forecast: 50 / 58 °F
Wind: 16 mph from Northeast

Location: Wales Airport

Current Time: Oct 24, 2016 at 1:34:24 PM

Latest Report: Oct 24, 2016 at 12:50 PM

Visibility: 4 mi

Pressure: 29.86 "Hg

Humidity: 100%

Dew Point: 48 °F

Location of CardiffLocation

Past Weather in Cardiff — Graph


Cardiff Temperature Yesterday

Maximum temperature yesterday: 54 °F (at 2:20 PM)
Minimum temperature yesterday: 45 °F (at 1:20 AM)
Average temperature yesterday: 48 °F

High & Low Weather Summary for the Past Weeks

High61 °F (Oct 16, 1:50 PM)100% (Oct 11, 8:50 AM)30.42 "Hg (Oct 11, 8:50 AM)
Low39 °F (Oct 21, 6:20 AM)51% (Oct 9, 3:20 PM)29.59 "Hg (Oct 15, 2:50 AM)
Average51 °F86%30.03 "Hg
* Reported Oct 9 12:20 PM — Oct 24 12:20 PM, Cardiff, Weather by CustomWeather, © 2016

Note: Actual official high and low records may vary slightly from our data, if they occured in-between our weather recording intervals... More about our weather records


Cardiff Weather History for the Previous 24 Hours

Scroll right to see more
Time TempWeatherWind HumidityBarometerVisibility
12:20 PM
Mon, Oct 24
48 °FLight rain. Overcast.18 mph100%29.86 "Hg4 mi
11:50 AM48 °FFog.17 mph100%29.86 "Hg3 mi
11:20 AM48 °FFog.16 mph100%29.86 "Hg3 mi
10:50 AM48 °FOvercast.17 mph94%29.86 "Hg4 mi
10:20 AM48 °FOvercast.16 mph94%29.86 "Hg5 mi
9:50 AM48 °FOvercast.17 mph94%29.86 "HgN/A
9:20 AM48 °FOvercast.18 mph94%29.86 "HgN/A
8:50 AM48 °FOvercast.20 mph94%29.83 "HgN/A
8:20 AM46 °FOvercast.17 mph100%29.83 "Hg5 mi
7:50 AM46 °FLight rain. Overcast.18 mph100%29.83 "Hg5 mi
7:20 AM48 °FMostly cloudy.17 mph94%29.83 "HgN/A
6:50 AM48 °FLight rain. Mostly cloudy.16 mph94%29.83 "HgN/A
6:20 AM46 °FLight rain. Mostly cloudy.16 mph100%29.83 "HgN/A
5:50 AM48 °FLight rain. Mostly cloudy.14 mph94%29.80 "HgN/A
5:20 AM46 °FPassing clouds.16 mph100%29.80 "HgN/A
4:50 AM46 °FPassing clouds.15 mph93%29.80 "HgN/A
4:20 AM46 °FLight rain. Overcast.16 mph93%29.80 "HgN/A
3:50 AM46 °FLight rain. Overcast.16 mph93%29.80 "HgN/A
3:20 AM46 °FLight rain. Overcast.16 mph93%29.80 "HgN/A
2:50 AM48 °FLight rain. Passing clouds.17 mph87%29.83 "Hg5 mi
2:20 AM48 °FPassing clouds.16 mph87%29.83 "HgN/A
1:50 AM48 °FPassing clouds.16 mph87%29.80 "HgN/A
1:20 AM48 °FPassing clouds.18 mph87%29.80 "HgN/A
12:50 AM48 °FPassing clouds.16 mph87%29.80 "HgN/A
12:20 AM48 °FPassing clouds.17 mph87%29.83 "HgN/A
11:50 PM
Sun, Oct 23
50 °FPassing clouds.18 mph82%29.80 "HgN/A
11:20 PM50 °FPassing clouds.22 mph82%29.80 "HgN/A
10:50 PM50 °FPassing clouds.21 mph82%29.80 "HgN/A
10:20 PM50 °FCool.22 mph82%29.80 "HgN/A
9:50 PM50 °FPassing clouds.20 mph76%29.80 "HgN/A
9:20 PM50 °FCool.20 mph82%29.80 "HgN/A
8:50 PM50 °FPassing clouds.18 mph82%29.80 "HgN/A
8:20 PM50 °FPassing clouds.16 mph82%29.80 "HgN/A
7:50 PM50 °FCool.20 mph82%29.77 "HgN/A
7:20 PM50 °FCool.18 mph82%29.77 "HgN/A
6:50 PM52 °FCool.18 mph77%29.77 "HgN/A
6:20 PM52 °FCool.20 mph77%29.77 "HgN/A
5:50 PM52 °FCool.20 mph77%29.77 "HgN/A
5:20 PM52 °FPassing clouds.18 mph77%29.77 "HgN/A
4:50 PM52 °FPassing clouds.20 mph72%29.77 "HgN/A
4:20 PM54 °FPassing clouds.21 mph72%29.77 "HgN/A
3:50 PM54 °FPartly sunny.20 mph72%29.77 "HgN/A
3:20 PM54 °FScattered clouds.21 mph72%29.77 "HgN/A
2:50 PM54 °FScattered clouds.24 mph72%29.77 "HgN/A
2:20 PM54 °FScattered clouds.24 mph77%29.80 "HgN/A
1:50 PM52 °FScattered clouds.23 mph77%29.80 "HgN/A
1:20 PM50 °FPartly sunny.22 mph88%29.80 "HgN/A
Weather by CustomWeather, © 2016

See weather overviewHow to use our weather pages